Regional Weather Roundup
Issued by NWS Portland, ME

Current Version | Previous Version | Graphics & Text | Print | Product List | Glossary On
Versions: 1 2 3 4 5 6 7 8 9 10 11 12 13 14 15 16 17 18 19 20 21 22 23 24 25 26 27 28 29 30 31 32 33 34 35 36 37 38 39 40 41 42 43 44 45 46 47 48 49 50
000
ASUS41 KGYX 022005
RWRGYX
WEATHER ROUNDUP FOR MAINE AND NEW HAMPSHIRE
NATIONAL WEATHER SERVICE GRAY ME
400 PM EDT TUE JUN 02 2015

MEZ002-005-006-010-012-015-018-020-021-024-026-027-029-022100-
MAINE

CITY           SKY/WX    TMP DP  RH WIND       PRES   REMARKS
PORTLAND       CLOUDY    49  46  90 E6        30.18F
SANFORD        CLOUDY   N/A N/A N/A MISG        N/A
BAR HARBOR     CLOUDY    46  46 100 NE9       30.17F
WISCASSET      CLOUDY    50  47  89 VRB5      30.19F
ROCKLAND       CLOUDY    46  45  93 NE6       30.17S
FRYEBURG       CLOUDY    50  43  77 NE3       30.19S
LEWISTONAUBURN CLOUDY    48  43  81 NE7       30.17F
AUGUSTA        CLOUDY    47  45  93 N8        30.18F
WATERVILLE     CLOUDY    46  39  76 NE5       30.16F
BANGOR         DRIZZLE   47  45  93 NE9       30.20S FOG
GREENVILLE       N/A     41  40  96 E12       30.17F
MILLINOCKET    CLOUDY    44  42  93 NE9       30.23F FOG
HOULTON        CLOUDY    43  39  86 E8        30.23F FOG
PRESQUE ISLE   CLOUDY    45  37  76 SE5       30.24F
FRENCHVILLE    CLOUDY    44  37  76 S5        30.24F
CARIBOU        CLOUDY    46  38  73 E5        30.24F
$$

NHZ002-005-008-009-011-012-014-022100-
NEW HAMPSHIRE

CITY           SKY/WX    TMP DP  RH WIND       PRES   REMARKS
PORTSMOUTH     CLOUDY    48  44  85 NE6       30.16F
ROCHESTER      CLOUDY    49  44  83 VRB6      30.16F
NASHUA         CLOUDY    50  46  85 E5        30.18F
MANCHESTER     CLOUDY    51  44  77 NE7       30.16F
CONCORD        CLOUDY    53  44  71 N7        30.17F
LACONIA        CLOUDY    52  43  71 NE5       30.15F
PLYMOUTH       CLOUDY    54  48  82 CALM      30.16F
BERLIN         CLOUDY    50  44  80 VRB5      30.16S
WHITEFIELD     CLOUDY    53  44  71 W3        30.15S
JAFFREY        CLOUDY    48  44  86 CALM      30.16S
KEENE          CLOUDY    52  43  71 CALM      30.17F
LEBANON        CLOUDY    57  44  62 CALM      30.15F
MT WASHINGTON  FOG       36  36 100 W20         N/A  VSB 1/16
$$

VTZ005-007-008-022100-
VERMONT

CITY           SKY/WX    TMP DP  RH WIND       PRES   REMARKS
ST JOHNSBURY     N/A     56  44  64 MISG      30.13F
MONTPELIER     CLOUDY    55  46  71 SE6       30.18F
BURLINGTON     LGT RAIN  57  49  74 NW7       30.15R
$$

MAZ007-012-024-CTZ003-RIZ002-NYZ038-NYZ072-022100-
SOUTHERN NEW ENGLAND AND NY

CITY           SKY/WX    TMP DP  RH WIND       PRES   REMARKS
BOSTON         CLOUDY    49  45  86 NE12      30.17F
WORCESTER      CLOUDY    48  44  86 N8        30.15F
NANTUCKET      LGT RAIN  53  48  83 N18       30.10R
PROVIDENCE     LGT RAIN  50  46  86 NE17G23   30.15F
HARTFORD       CLOUDY    54  48  80 NE10      30.14F
ALBANY         CLOUDY    60  48  64 N5        30.15F
NEW YORK CITY  LGT RAIN  54  50  86 NE12      30.12F
$$

ANZ081-ANZ082-ANZ150-NHZ014-MEZ023>029-022100-
COASTAL MARINE OBSERVATIONS

STATION/POSITION TIME  TEMP    WIND        PRES    WAVE
                       AIR SEA DIR/SP/G            HT/PER
                 (UTC) (F)     (DEG/KT/KT) (MB)    (FT/S)
MOUNT DESERT ROC 2000   43      20/ 23/ 25   N/A
MATINICUS ROCK   1900   43      50/ 26/ 29   N/A
ISLE OF SHOALS   1900   47      50/ 16/ 18   N/A
JEFFREYS LEDGE   1903      49                N/A     7/ 7
CASHES LEDGE BUO 1950   46 50                N/A     8/ 8
GEORGES BANK BUO 1850   63 57  200/  8/  8   N/A     4/ 8
$$

.............KEY..............
   WCI - WIND CHILL
   TC  - TEMPERATURE IN CELSIUS
   VSB - VISIBILITY IN MILES
   HX  - HEAT INDEX
   FAIR- INDICATES FEW OR NO CLOUDS BELOW 12,000 FT, WITH NO
         SIGNIFICANT WEATHER AND/OR OBSTRUCTIONS TO VISIBILITY.




USA.gov is the U.S. government's official web portal to all federal, state and local government web resources and services.